Flag Weather past 2 weeks in Yverdon-les-Bains, Vaud, Switzerland

Now
45 °F

Quite cool.


Feels Like: 42 °F
Forecast: 35 / 57 °F
Wind: 5 mph from North

Location: Payerne

Current Time: Nov 28, 2014 at 4:42:44 AM

Latest Report: Nov 28, 2014 at 3:00 AM


Visibility: N/A

Pressure: 29.77 "Hg

Humidity: 97%

Dew point: 44 °F

Location of Yverdon-les-BainsLocation

Historic Weather in Yverdon-les-Bains — Graph

°F

Yverdon-les-Bains temperature yesterday

Maximum temperature yesterday: 48 °F (at 1:00 PM)
Minimum temperature yesterday: 46 °F (at 8:00 AM)
Average temperature yesterday: 47 °F

Past Weeks' High & Low Weather Summary

 TemperatureHumidityPressure
High52 °F (Nov 13, 2:00 PM)100% (Nov 14, 1:00 AM)30.30 "Hg (Nov 14, 1:00 AM)
Low34 °F (Nov 20, 1:00 AM)68% (Nov 16, 2:00 PM)29.61 "Hg (Nov 15, 5:00 PM)
Average44 °F94%29.99 "Hg
* Reported Nov 13 3:00 AM — Nov 28 3:00 AM, Yverdon-les-Bains, Weather by CustomWeather, © 2014

Note: Actual official high and low records may vary slightly from our data, if they occured in-between our weather recording intervals... More about our weather records

Advertising

Yverdon-les-Bains weather history for previous 24 hours

 ConditionsComfort  
Time TempWeatherWind HumidityBarometerVisibility
3:00 AM
Nov 28
45 °FQuite cool.5 mph97%29.77 "HgN/A
2:00 AM45 °FCool.5 mph96%29.77 "HgN/A
1:00 AM46 °FFog.3 mph96%29.77 "Hg1 mi
12:00 AM46 °FCool.3 mph97%29.78 "HgN/A
11:00 PM
Nov 27
46 °FCool.3 mph96%29.79 "HgN/A
10:00 PM46 °FFog.1 mph94%29.79 "Hg4 mi
9:00 PM46 °FCool.3 mph93%29.79 "HgN/A
8:00 PM46 °FCool.3 mph92%29.78 "HgN/A
7:00 PM47 °FFog.2 mph91%29.77 "Hg4 mi
6:00 PM47 °FCool.5 mph91%29.76 "HgN/A
5:00 PM47 °FCool.3 mph91%29.77 "HgN/A
4:00 PM47 °FCool.3 mph90%29.76 "HgN/A
3:00 PM48 °FCool.2 mph89%29.77 "HgN/A
2:00 PM48 °FCool.2 mph89%29.78 "HgN/A
1:00 PM48 °FFog.3 mph88%29.79 "Hg3 mi
12:00 PM47 °FCool.2 mph93%29.80 "HgN/A
11:00 AM46 °FCool.No wind94%29.81 "HgN/A
10:00 AM46 °FFog.1 mph94%29.82 "Hg2 mi
9:00 AM46 °FCool.1 mph97%29.81 "HgN/A
8:00 AM46 °FCool.No wind97%29.81 "HgN/A
7:00 AM46 °FFog.1 mph96%29.81 "Hg2 mi
6:00 AM46 °FCool.3 mph97%29.81 "HgN/A
5:00 AM46 °FCool.1 mph98%29.83 "HgN/A
Weather by CustomWeather, © 2014

See weather overviewHow to use our weather pages